Find Starlink 31805

NORAD ID: 59745 Int'l Des: 2024-090 Owner: SPXS Country: US Constellation: starlink operational
LEOCIRCULAR

Current View

Loading 3D Globe...

About Starlink 31805

Starlink 31805 (NORAD 59745) is a starlink constellation satellite (v2 mini) launched May 13, 2024 by SPXS of US. It operates in LEO, CIRCULAR orbit with a mass of 730.00 kg.

Upcoming Passes

Passes for default location (London). Set your location on the main map for personalized predictions.

Altitude History

Loading altitude history...

Two-Line Element Set

1 59745U 24090R 26262.09849029 -.00000478 00000-0 -78372-5 0 9997
2 59745 42.9965 170.8710 0001137 265.9195 94.1527 15.27581491133020
Epoch: Sep 19, 2026 • Age: 53 hours

Current Status

Altitude 485.6 km
Apogee / Perigee N/A
Velocity 7.62 km/s
Sub-Earth Point -14.33°S, 111.28°W
Launch Date May 13, 2024
Age 2.3 years
Type internet

Technical Details

Classification Payload
Mass 730.00 kg
Dry Mass 700.00 kg
Length 0.30 m
Span 29.00 m
Shape ? Box + pan
Manufacturer SPXS
Bus Type Starlink V2M
Phase Status In Orbit
Owner/State SPXS/US

Most Searched